Voltar ao catálogo

BEIDOU 3M18

AtivoNavegaçãoMEO
NORAD 43707·PAYLOAD·🇨🇳 China

Lançado Nov 18, 2018 de Xichang Satellite Launch Center

Loading…

Próximas Passagens (próximas 24 horas)

TLE

AtualizadoSource: CelesTrak SupGP

Época: Sep 12, 2026, 00:00 UTC

1 43707C 18093B   26255.00000000  .00000000  00000+0  00000+0 0  2555
2 43707  54.1669 179.3457 0007448 339.7571 271.8335  1.86226776    13

Acompanhe BEIDOU 3M18 em tempo real com AllMySat

Download on the App Store